This is the latest recevied weather packets stored in our database for station/object KC3ROS. If no packets are shown the sender has not sent any weather packets the latest 10 day(s).
| Time | Temp. | Humidity | Pressure | Rain* | Wind** | Luminosity | Snow |
|---|---|---|---|---|---|---|---|
| 1777855201 | 11.67° C | 49% | 1012.1 hPa | 0 mm | - | 0 W/m² | - |
| 1777854897 | 11.67° C | 48% | 1012.3 hPa | 0 mm | - | 0 W/m² | - |
| 1777854594 | 11.67° C | 48% | 1012 hPa | 0 mm | - | 0 W/m² | - |
| 1777854291 | 11.67° C | 48% | 1012.2 hPa | 0 mm | - | 1 W/m² | - |
| 1777853988 | 11.67° C | 48% | 1012.2 hPa | 0 mm | - | 2 W/m² | - |
| 1777853685 | 12.22° C | 47% | 1012.2 hPa | 0 mm | - | 3 W/m² | - |
| 1777853382 | 12.22° C | 47% | 1012.2 hPa | 0 mm | - | 5 W/m² | - |
| 1777853079 | 12.22° C | 46% | 1012.3 hPa | 0 mm | - | 7 W/m² | - |
| 1777852777 | 12.78° C | 46% | 1012.2 hPa | 0 mm | - | 9 W/m² | - |
| 1777852474 | 12.78° C | 45% | 1012.1 hPa | 0 mm | - | 11 W/m² | - |
| 1777852171 | 12.78° C | 45% | 1012.2 hPa | 0 mm | - | 14 W/m² | - |
| 1777851869 | 12.78° C | 46% | 1012.3 hPa | 0 mm | - | 17 W/m² | - |
| 1777851567 | 12.78° C | 45% | 1012.2 hPa | 0 mm | - | 23 W/m² | - |
| 1777851263 | 12.78° C | 45% | 1012.1 hPa | 0 mm | - | 24 W/m² | - |
| 1777850960 | 12.78° C | 45% | 1012.2 hPa | 0 mm | - | 25 W/m² | - |
| 1777850657 | 12.78° C | 45% | 1012.3 hPa | 0 mm | - | 30 W/m² | - |
| 1777850355 | 13.33° C | 44% | 1012.2 hPa | 0 mm | - | 42 W/m² | - |
| 1777850052 | 12.78° C | 46% | 1012.4 hPa | 0 mm | - | 39 W/m² | - |
| 1777849748 | 13.33° C | 45% | 1012.4 hPa | 0 mm | - | 37 W/m² | - |
| 1777849444 | 13.33° C | 44% | 1012.3 hPa | 0 mm | - | 39 W/m² | - |
| 1777849142 | 13.33° C | 45% | 1012.3 hPa | 0 mm | - | 47 W/m² | - |
| 1777848838 | 13.89° C | 44% | 1012.3 hPa | 0 mm | - | 55 W/m² | - |
| 1777848534 | 13.89° C | 45% | 1012.4 hPa | 0 mm | - | 91 W/m² | - |
| 1777848231 | 13.89° C | 45% | 1012.2 hPa | 0 mm | - | 83 W/m² | - |
| 1777847929 | 13.89° C | 43% | 1012.4 hPa | 0 mm | - | 81 W/m² | - |
* Rain latest hour (hover to see other rain measurements)
** Current wind speed in m/s (hover to see current wind gust speed)